Location: Владивосток
(43.1151°N, 131.8856°E)
Time: 11:53:11
(UTC+10:00)

VELOX 1 - Pass Details

Date: 30 June 2022
Orbit: 623 x 639 km, 98.4° (Epoch: 17 August)

Event Time Altitude Azimuth Distance (km) Brightness Sun altitude
Rises 04:18:16 0° 117° (ESE) 2,922 ? -11.6°
Reaches altitude 10° 04:21:22 10° 93° (E) 2,023 ? -11.2°
Maximum altitude 04:23:42 14° 61° (ENE) 1,758 ? -10.9°
Drops below altitude 10° 04:26:02 10° 29° (NNE) 2,035 ? -10.6°
Sets 04:29:10 0° 5° (N) 2,952 ? -10.2°
